Regional Weather Roundup
Issued by NWS

Home | Current Version | Previous Version | Graphics & Text | Print | Product List | Glossary On
Versions: 1 2 3 4 5 6 7 8 9 10 11 12 13 14 15 16 17 18 19 20 21 22 23 24 25 26 27 28 29 30 31 32 33 34 35 36 37 38 39 40 41 42 43 44 45 46 47 48 49 50
000
ASUS43 KLSX 281607
RWRMO

WEATHER SUMMARY FOR MISSOURI
NATIONAL WEATHER SERVICE SPRINGFIELD MO
1000 AM CST SAT FEB 28 2015

NOTE: "FAIR" INDICATES FEW OR NO CLOUDS BELOW 12,000 FEET WITH NO
       SIGNIFICANT WEATHER AND/OR OBSTRUCTIONS TO VISIBILITY.
       CURRENT SKY AND/OR WEATHER CONDITIONS ARE NOT AVAILABLE FOR
       CHILLICOTHE AND FARMINGTON.

MOZ001>031-035>038-043-044-053-054-281700-
...NORTHERN AND WESTERN MISSOURI...

CITY           SKY/WX    TMP DP  RH WIND       PRES   REMARKS
KANSAS CTY INT LGT SNOW  19  12  74 SE8       30.50F WCI   9
KANSAS C DTWN  LGT SNOW  21  13  71 SE7       30.53S WCI  12
LEE`S SUMMIT   LGT SNOW  20  11  68 SE7       30.52R WCI  11
ST JOSEPH      LGT SNOW  19  13  77 SE7       30.54R VSB 3/4 WCI  10
CHILLICOTHE      N/A     20  10  65 VRB6      30.56F WCI  12
KIRKSVILLE     SUNNY     19  10  68 SE10      30.55F WCI   7

$$
MOZ066>068-077>081-088>096-101>105-281700-
...SOUTHWEST MISSOURI...

CITY           SKY/WX    TMP DP  RH WIND       PRES   REMARKS
SPRINGFIELD    LGT SNOW  22  16  78 SE12      30.47F VSB 1   WCI  10
JOPLIN         SNOW      22  18  85 E7        30.48F VSB 1/2 WCI  13

$$
MOZ032>034-039>042-045>050-055>058-069>072-281700-
...CENTRAL MISSOURI...

CITY           SKY/WX    TMP DP  RH WIND       PRES   REMARKS
COLUMBIA       CLOUDY    22  10  60 SE9       30.55F WCI  12
JEFFERSON CITY CLOUDY    22  10  60 SE10G20   30.58F WCI  11
ROLLA          FLURRIES  21  11  65 E13       30.51F WCI   9
SEDALIA        CLOUDY    24   9  52 SE12      30.54S WCI  13
OSAGE BEACH    CLOUDY    25  10  54 SE10      30.53F WCI  15

$$
MOZ051-052-059>065-281700-
...EAST CENTRAL MISSOURI...

CITY           SKY/WX    TMP DP  RH WIND       PRES   REMARKS
ST LOUIS INTL  PTSUNNY   22   8  55 E9        30.63F WCI  12
SPIRIT OF STL  CLOUDY    23   8  52 E8        30.62F WCI  14
ST CHARLES     CLOUDY    19   9  65 E10       30.64F WCI   7

$$
MOZ072>076-082>087-097>100-106>115-281700-
...SOUTH CENTRAL AND SOUTHEAST MISSOURI...

CITY           SKY/WX    TMP DP  RH WIND       PRES   REMARKS
CAPE GIRARDEAU CLOUDY    25  13  60 NE6       30.63F WCI  18
FARMINGTON     PTSUNNY   21  12  68 E8        30.61F WCI  12
POPLAR BLUFF   LGT SNOW  22  14  71 NE10      30.61F WCI  11
WEST PLAINS    LGT SNOW  21  15  78 E9        30.52F WCI  11

$$


USA.gov is the U.S. government's official web portal to all federal, state and local government web resources and services.